Cedar City, UT

4:25 AM MST on January 21, 2018 (GMT -0700)
Cedar City Regional

Weather History for KCDC - June, 2013

Change the Weather History Date:

Wednesday, June 19, 2013

  Actual Average Record
Temperature  
Mean Temperature 73 °F 67 °F  
Max Temperature 83 °F 85 °F 99 °F (1961)
Min Temperature 62 °F 49 °F 31 °F (1973)
Degree Days  
Heating Degree Days 0 2  
Month to date heating degree days 8 67  
Since 1 June heating degree days 8 67  
Since 1 July heating degree days 6131 6246  
Cooling Degree Days 8 3  
Month to date cooling degree days 78 41  
Year to date cooling degree days 80 49  
Since 1 June cooling degree days 78 41  
Growing Degree Days 21 (Base 50)    
Moisture  
Dew Point 13 °F    
Average Humidity 13    
Maximum Humidity 19    
Minimum Humidity 7    
Precipitation  
Precipitation 0.00 in 0.02 in 0.65 in (2011)
Month to date precipitation 0.00 0.39  
Year to date precipitation 4.06 5.43  
Sea Level Pressure  
Sea Level Pressure 29.65 in    
Wind  
Wind Speed 14 mph (SSW)    
Max Wind Speed 26 mph    
Max Gust Speed 36 mph    
Visibility 10 miles    
Events      
T = Trace of Precipitation, MM = Missing Value Source: NWS Daily Summary

Daily Weather History Graph

Daily Weather History Graph

Search for Another Location

Airport or City:

Trip Planner

Search our weather history database for the weather conditions in past years. The results will help you decide how hot, cold, wet, or windy it might be!

Date:

Astronomy

Jun. 19, 2013 Rise Set
Actual Time 6:10 AM MDT 8:57 PM MDT
Civil Twilight 5:39 AM MDT 9:28 PM MDT
Nautical Twilight 5:00 AM MDT 10:07 PM MDT
Astronomical Twilight 4:15 AM MDT 10:52 PM MDT
Moon 4:57 PM MDT (6/19) 2:54 AM MDT (6/19)
Length of Visible Light 15h 49m
Length of Day
14h 46m
Waxing Gibbous, 81% of the Moon is Illuminated
Jun 19
Waxing Gibbous
Jun 23
Full
Jun 29
Last Quarter
Jul 8
New
Jul 15
First Quarter

Hourly Weather History & Observations

Time (MDT) Temp. Dew Point Humidity Pressure Visibility Wind Dir Wind Speed Gust Speed Precip Events Conditions
12:53 AM 64.9 °F 12.9 °F 13% 29.60 in 10.0 mi SW 8.1 mph - N/A   Clear
1:53 AM 68.0 °F 14.0 °F 12% 29.58 in 10.0 mi South 11.5 mph - N/A   Clear
2:53 AM 63.0 °F 15.1 °F 16% 29.57 in 10.0 mi SSW 10.4 mph - N/A   Clear
3:53 AM 70.0 °F 12.0 °F 11% 29.55 in 10.0 mi South 16.1 mph 24.2 mph N/A   Clear
4:53 AM 69.1 °F 12.9 °F 11% 29.56 in 10.0 mi South 20.7 mph 31.1 mph N/A   Clear
5:53 AM 66.0 °F 19.0 °F 17% 29.56 in 10.0 mi South 11.5 mph 17.3 mph N/A   Clear
6:53 AM 66.0 °F 23.0 °F 20% 29.57 in 10.0 mi SSW 11.5 mph 21.9 mph N/A   Clear
7:53 AM 69.1 °F 21.0 °F 16% 29.60 in 10.0 mi SSW 16.1 mph 24.2 mph N/A   Clear
8:53 AM 72.0 °F 21.9 °F 15% 29.61 in 10.0 mi SW 15.0 mph 23.0 mph N/A   Clear
9:53 AM 73.0 °F 21.0 °F 14% 29.64 in 10.0 mi South 21.9 mph 32.2 mph N/A   Clear
10:53 AM 75.9 °F 21.0 °F 13% 29.64 in 10.0 mi SSW 19.6 mph 31.1 mph N/A   Clear
11:53 AM 77.0 °F 19.9 °F 12% 29.66 in 10.0 mi South 17.3 mph 26.5 mph N/A   Clear
12:53 PM 80.1 °F 17.1 °F 9% 29.67 in 10.0 mi South 19.6 mph 27.6 mph N/A   Clear
1:53 PM 81.0 °F 16.0 °F 9% 29.66 in 10.0 mi South 13.8 mph 26.5 mph N/A   Clear
2:53 PM 82.0 °F 17.1 °F 9% 29.67 in 10.0 mi SSW 8.1 mph 27.6 mph N/A   Clear
3:48 PM 82.4 °F 17.6 °F 9% 29.91 in 10.0 mi SW 17.3 mph 25.3 mph N/A   Clear
3:53 PM 82.0 °F 16.0 °F 8% 29.64 in 10.0 mi South 18.4 mph 26.5 mph N/A   Clear
4:53 PM 82.9 °F 14.0 °F 8% 29.63 in 10.0 mi SW 19.6 mph 29.9 mph N/A   Clear
5:53 PM 81.0 °F 7.0 °F 6% 29.64 in 10.0 mi SW 15.0 mph 21.9 mph N/A   Clear
6:53 PM 80.1 °F -4.0 °F 4% 29.65 in 10.0 mi SW 13.8 mph 18.4 mph N/A   Clear
7:53 PM 77.0 °F -7.1 °F 4% 29.66 in 10.0 mi SW 11.5 mph - N/A   Clear
8:53 PM 66.9 °F -2.9 °F 6% 29.69 in 10.0 mi West 4.6 mph - N/A   Clear
9:53 PM 62.1 °F -8.0 °F 6% 29.72 in 10.0 mi SE 5.8 mph - N/A   Clear
10:53 PM 60.1 °F 7.0 °F 12% 29.74 in 10.0 mi SSE 5.8 mph - N/A   Clear
11:53 PM 57.9 °F 10.9 °F 16% 29.75 in 10.0 mi SSE 6.9 mph - N/A   Clear